STARLINK-34107, 63960

Orbit data source: Space-Track

STARLINK-34107, 63960 is a payload satellite owned by SpaceX/Seattle (US) in LEO that was launched on Tue, 13 May 2025 UTC via an FALCON 9 launch vehicle from the Air Force Eastern Test Range (AFETR). Payload-class satellites include a variety of spacecraft equipped with specific instruments for various scientific and technological missions. These include communications satellites like Starlink; space stations such as the ISS; scientific satellites like the Hubble; Earth observation satellites from companies like Planet Labs, Umbra, and HawkEye 360; GPS; miniature CubeSats for education and research; and military/defense satellites.

Loading next visibility...
Identifier
63960, 2025-099J
Orbit
LEO
Country
Flag of USUS
Related business
Manufacturer
SpaceX/Seattle
Mission
Operational Commercial Communications
Bus & Motor
STARLINK V2MO, Unknown motor
Mass
575 kg wet, ~530 kg dry
Launch date (UTC)
2025-05-13 (11 months ago)
Launch vehicle
FALCON 9
Launch site
Air Force Eastern Test Range (AFETR)
Object type
Payload
Rocket body
Debris
Shape & HBR
Box + 2 Pan, 17.7 m
Radar Cross Section
36.964 m², Large (>1 m²)

Expand to show TLE details & history
Last TLE update: 16 hours ago

TLE from 16 hours ago
0 STARLINK-34107
1 63960U 25099J   26093.85375147  .00037300  00000-0  13587-2 0  9998
2 63960  42.9976  34.2081 0000938 245.5496 114.5258 15.27567320 51185
Epoch: 2026-04-03T20:29Z
TLE epoch observation values (Epoch: 2026-04-03T20:29:24.127Z)
Latitude
-0.00003°
Longitude
-105.32437°
Altitude
483.129 km
Speed
7.626 km/s
True Right ascension
02h 16m 49s
True Declination
0° 00' 00"
Sunlit
Object was in daylight at epoch
Visualization orbit readout
Latitude
Unknown
Longitude
Unknown
Altitude
Unknown
Speed
Unknown
Apparent Right ascension
Unknown
Apparent Declination
Unknown
Sunlit
N/A
Visualization observer readout
Local Sidereal Time
18:02:16
Azimuth
Unknown
Elevation
Unknown
Doppler factor
Unknown
Orbital elements
Apogee altitude
485.676 km
Perigee altitude
484.389 km
Semi-major axis
6,863.17 km
Eccentricity
0.00009
Inclination
42.9976°
RAAN
34.2081°
Arg. of periapsis
245.5496°
True anomaly
114.53558°
Mean anomaly
114.5258°
Eccentric anomaly
114.53069°
Mean motion
3.8173 °/min
Orbital period
94.31 mins
BSTAR
0.0013587
Loading maneuver chart data...
Computing Atmospheric mass density...
Loading historical data...
Loading historical data...
Loading historical data...
Loading historical data...
Loading historical data...
Loading historical data...
Loading historical data...

Documentation

Showing up to 5 results
|